Year,Month,Day,Hour,Minute,Value (Times are PST for temperature in C)
2015,06,27,00,00,20.20
2015,06,27,00,01,20.20
2015,06,27,00,02,20.10
2015,06,27,00,03,20.10
2015,06,27,00,04,20.10
2015,06,27,00,05,20.10
2015,06,27,00,06,20.00
2015,06,27,00,07,20.00
2015,06,27,00,08,19.90
2015,06,27,00,09,19.90
2015,06,27,00,10,19.90
2015,06,27,00,11,19.80
2015,06,27,00,12,19.80
2015,06,27,00,13,19.80
2015,06,27,00,14,19.80
2015,06,27,00,15,19.80
2015,06,27,00,16,19.80
2015,06,27,00,17,19.70
2015,06,27,00,18,19.70
2015,06,27,00,19,19.70
2015,06,27,00,20,19.70
2015,06,27,00,21,19.70
2015,06,27,00,22,19.70
2015,06,27,00,23,19.60
2015,06,27,00,24,19.60
2015,06,27,00,25,19.60
2015,06,27,00,26,19.60
2015,06,27,00,27,19.50
2015,06,27,00,28,19.50
2015,06,27,00,29,19.50
2015,06,27,00,30,19.40
2015,06,27,00,31,19.40
2015,06,27,00,32,19.40
2015,06,27,00,33,19.40
2015,06,27,00,34,19.30
2015,06,27,00,35,19.30
2015,06,27,00,36,19.30
2015,06,27,00,37,19.20
2015,06,27,00,38,19.20
2015,06,27,00,39,19.20
2015,06,27,00,40,19.20
2015,06,27,00,41,19.20
2015,06,27,00,42,19.10
2015,06,27,00,43,19.10
2015,06,27,00,44,19.10
2015,06,27,00,45,19.10
2015,06,27,00,46,19.00
2015,06,27,00,47,19.00
2015,06,27,00,48,19.00
2015,06,27,00,49,19.00
2015,06,27,00,50,18.90
2015,06,27,00,51,18.90
2015,06,27,00,52,18.90
2015,06,27,00,53,18.90
2015,06,27,00,54,18.90
2015,06,27,00,55,18.80
2015,06,27,00,56,18.80
2015,06,27,00,57,18.80
2015,06,27,00,58,18.80
2015,06,27,00,59,18.80
2015,06,27,01,00,18.80
2015,06,27,01,01,18.70
2015,06,27,01,02,18.70
2015,06,27,01,03,18.70
2015,06,27,01,04,18.70
2015,06,27,01,05,18.70
2015,06,27,01,06,18.70
2015,06,27,01,07,18.60
2015,06,27,01,08,18.60
2015,06,27,01,09,18.60
2015,06,27,01,10,18.60
2015,06,27,01,11,18.60
2015,06,27,01,12,18.60
2015,06,27,01,13,18.60
2015,06,27,01,14,18.60
2015,06,27,01,15,18.60
2015,06,27,01,16,18.60
2015,06,27,01,17,18.60
2015,06,27,01,18,18.60
2015,06,27,01,19,18.50
2015,06,27,01,20,18.50
2015,06,27,01,21,18.50
2015,06,27,01,22,18.50
2015,06,27,01,23,18.50
2015,06,27,01,24,18.50
2015,06,27,01,25,18.40
2015,06,27,01,26,18.40
2015,06,27,01,27,18.40
2015,06,27,01,28,18.40
2015,06,27,01,29,18.40
2015,06,27,01,30,18.40
2015,06,27,01,31,18.40
2015,06,27,01,32,18.40
2015,06,27,01,33,18.40
2015,06,27,01,34,18.40
2015,06,27,01,35,18.30
2015,06,27,01,36,18.30
2015,06,27,01,37,18.30
2015,06,27,01,38,18.30
2015,06,27,01,39,18.30
2015,06,27,01,40,18.30
2015,06,27,01,41,18.30
2015,06,27,01,42,18.30
2015,06,27,01,43,18.20
2015,06,27,01,44,18.20
2015,06,27,01,45,18.20
2015,06,27,01,46,18.20
2015,06,27,01,47,18.20
2015,06,27,01,48,18.20
2015,06,27,01,49,18.20
2015,06,27,01,50,18.20
2015,06,27,01,51,18.20
2015,06,27,01,52,18.20
2015,06,27,01,53,18.10
2015,06,27,01,54,18.10
2015,06,27,01,55,18.10
2015,06,27,01,56,18.10
2015,06,27,01,57,18.10
2015,06,27,01,58,18.10
2015,06,27,01,59,18.10
2015,06,27,02,00,18.10
2015,06,27,02,01,18.00
2015,06,27,02,02,18.00
2015,06,27,02,03,18.00
2015,06,27,02,04,18.00
2015,06,27,02,05,18.00
2015,06,27,02,06,17.90
2015,06,27,02,07,17.90
2015,06,27,02,08,17.90
2015,06,27,02,09,17.90
2015,06,27,02,10,17.90
2015,06,27,02,11,17.90
2015,06,27,02,12,17.90
2015,06,27,02,13,17.90
2015,06,27,02,14,17.90
2015,06,27,02,15,17.90
2015,06,27,02,16,17.80
2015,06,27,02,17,17.80
2015,06,27,02,18,17.80
2015,06,27,02,19,17.80
2015,06,27,02,20,17.80
2015,06,27,02,21,17.80
2015,06,27,02,22,17.80
2015,06,27,02,23,17.80
2015,06,27,02,24,17.70
2015,06,27,02,25,17.70
2015,06,27,02,26,17.70
2015,06,27,02,27,17.70
2015,06,27,02,28,17.70
2015,06,27,02,29,17.70
2015,06,27,02,30,17.70
2015,06,27,02,31,17.70
2015,06,27,02,32,17.70
2015,06,27,02,33,17.60
2015,06,27,02,34,17.60
2015,06,27,02,35,17.60
2015,06,27,02,36,17.60
2015,06,27,02,37,17.60
2015,06,27,02,38,17.60
2015,06,27,02,39,17.60
2015,06,27,02,40,17.50
2015,06,27,02,41,17.50
2015,06,27,02,42,17.50
2015,06,27,02,43,17.50
2015,06,27,02,44,17.50
2015,06,27,02,45,17.50
2015,06,27,02,46,17.40
2015,06,27,02,47,17.40
2015,06,27,02,48,17.40
2015,06,27,02,49,17.40
2015,06,27,02,50,17.40
2015,06,27,02,51,17.40
2015,06,27,02,52,17.40
2015,06,27,02,53,17.40
2015,06,27,02,54,17.40
2015,06,27,02,55,17.30
2015,06,27,02,56,17.30
2015,06,27,02,57,17.30
2015,06,27,02,58,17.30
2015,06,27,02,59,17.30
2015,06,27,03,00,17.30
2015,06,27,03,01,17.30
2015,06,27,03,02,17.30
2015,06,27,03,03,17.30
2015,06,27,03,04,17.20
2015,06,27,03,05,17.20
2015,06,27,03,06,17.20
2015,06,27,03,07,17.20
2015,06,27,03,08,17.20
2015,06,27,03,09,17.20
2015,06,27,03,10,17.20
2015,06,27,03,11,17.20
2015,06,27,03,12,17.20
2015,06,27,03,13,17.20
2015,06,27,03,14,17.20
2015,06,27,03,15,17.10
2015,06,27,03,16,17.10
2015,06,27,03,17,17.10
2015,06,27,03,18,17.10
2015,06,27,03,19,17.10
2015,06,27,03,20,17.10
2015,06,27,03,21,17.10
2015,06,27,03,22,17.10
2015,06,27,03,23,17.10
2015,06,27,03,24,17.10
2015,06,27,03,25,17.10
2015,06,27,03,26,17.10
2015,06,27,03,27,17.10
2015,06,27,03,28,17.10
2015,06,27,03,29,17.10
2015,06,27,03,30,17.10
2015,06,27,03,31,17.00
2015,06,27,03,32,17.00
2015,06,27,03,33,17.00
2015,06,27,03,34,17.00
2015,06,27,03,35,17.00
2015,06,27,03,36,17.00
2015,06,27,03,37,17.00
2015,06,27,03,38,17.00
2015,06,27,03,39,17.00
2015,06,27,03,40,17.00
2015,06,27,03,41,17.00
2015,06,27,03,42,17.00
2015,06,27,03,43,17.00
2015,06,27,03,44,17.00
2015,06,27,03,45,17.00
2015,06,27,03,46,17.00
2015,06,27,03,47,17.00
2015,06,27,03,48,17.00
2015,06,27,03,49,17.00
2015,06,27,03,50,17.00
2015,06,27,03,51,17.00
2015,06,27,03,52,17.00
2015,06,27,03,53,16.90
2015,06,27,03,54,16.90
2015,06,27,03,55,16.90
2015,06,27,03,56,16.90
2015,06,27,03,57,16.90
2015,06,27,03,58,16.90
2015,06,27,03,59,16.90
2015,06,27,04,00,16.90
2015,06,27,04,01,16.90
2015,06,27,04,02,16.90
2015,06,27,04,03,16.90
2015,06,27,04,04,16.90
2015,06,27,04,05,16.90
2015,06,27,04,06,16.90
2015,06,27,04,07,16.90
2015,06,27,04,08,16.90
2015,06,27,04,09,16.90
2015,06,27,04,10,16.90
2015,06,27,04,11,16.90
2015,06,27,04,12,16.90
2015,06,27,04,13,16.90
2015,06,27,04,14,16.90
2015,06,27,04,15,16.90
2015,06,27,04,16,16.90
2015,06,27,04,17,16.90
2015,06,27,04,18,16.90
2015,06,27,04,19,16.90
2015,06,27,04,20,16.90
2015,06,27,04,21,16.90
2015,06,27,04,22,16.90
2015,06,27,04,23,16.90
2015,06,27,04,24,16.90
2015,06,27,04,25,16.90
2015,06,27,04,26,16.90
2015,06,27,04,27,16.90
2015,06,27,04,28,16.90
2015,06,27,04,29,16.90
2015,06,27,04,30,16.90
2015,06,27,04,31,16.90
2015,06,27,04,32,16.90
2015,06,27,04,33,16.80
2015,06,27,04,34,16.80
2015,06,27,04,35,16.80
2015,06,27,04,36,16.80
2015,06,27,04,37,16.80
2015,06,27,04,38,16.80
2015,06,27,04,39,16.80
2015,06,27,04,40,16.80
2015,06,27,04,41,16.80
2015,06,27,04,42,16.70
2015,06,27,04,43,16.70
2015,06,27,04,44,16.70
2015,06,27,04,45,16.70
2015,06,27,04,46,16.70
2015,06,27,04,47,16.70
2015,06,27,04,48,16.60
2015,06,27,04,49,16.60
2015,06,27,04,50,16.60
2015,06,27,04,51,16.60
2015,06,27,04,52,16.60
2015,06,27,04,53,16.60
2015,06,27,04,54,16.60
2015,06,27,04,55,16.60
2015,06,27,04,56,16.60
2015,06,27,04,57,16.60
2015,06,27,04,58,16.60
2015,06,27,04,59,16.60
2015,06,27,05,00,16.60
2015,06,27,05,01,16.50
2015,06,27,05,02,16.50
2015,06,27,05,03,16.50
2015,06,27,05,04,16.50
2015,06,27,05,05,16.50
2015,06,27,05,06,16.50
2015,06,27,05,07,16.50
2015,06,27,05,08,16.50
2015,06,27,05,09,16.50
2015,06,27,05,10,16.40
2015,06,27,05,11,16.50
2015,06,27,05,12,16.40
2015,06,27,05,13,16.40
2015,06,27,05,14,16.40
2015,06,27,05,15,16.40
2015,06,27,05,16,16.40
2015,06,27,05,17,16.40
2015,06,27,05,18,16.40
2015,06,27,05,19,16.40
2015,06,27,05,20,16.40
2015,06,27,05,21,16.40
2015,06,27,05,22,16.40
2015,06,27,05,23,16.40
2015,06,27,05,24,16.40
2015,06,27,05,25,16.40
2015,06,27,05,26,16.40
2015,06,27,05,27,16.40
2015,06,27,05,28,16.40
2015,06,27,05,29,16.40
2015,06,27,05,30,16.40
2015,06,27,05,31,16.30
2015,06,27,05,32,16.30
2015,06,27,05,33,16.30
2015,06,27,05,34,16.30
2015,06,27,05,35,16.30
2015,06,27,05,36,16.30
2015,06,27,05,37,16.30
2015,06,27,05,38,16.30
2015,06,27,05,39,16.30
2015,06,27,05,40,16.30
2015,06,27,05,41,16.30
2015,06,27,05,42,16.30
2015,06,27,05,43,16.30
2015,06,27,05,44,16.30
2015,06,27,05,45,16.30
2015,06,27,05,46,16.30
2015,06,27,05,47,16.30
2015,06,27,05,48,16.30
2015,06,27,05,49,16.30
2015,06,27,05,50,16.30
2015,06,27,05,51,16.30
2015,06,27,05,52,16.30
2015,06,27,05,53,16.30
2015,06,27,05,54,16.30
2015,06,27,05,55,16.30
2015,06,27,05,56,16.30
2015,06,27,05,57,16.40
2015,06,27,05,58,16.40
2015,06,27,05,59,16.40
2015,06,27,06,00,16.40
2015,06,27,06,01,16.40
2015,06,27,06,02,16.40
2015,06,27,06,03,16.40
2015,06,27,06,04,16.40
2015,06,27,06,05,16.40
2015,06,27,06,06,16.40
2015,06,27,06,07,16.40
2015,06,27,06,08,16.40
2015,06,27,06,09,16.40
2015,06,27,06,10,16.40
2015,06,27,06,11,16.50
2015,06,27,06,12,16.50
2015,06,27,06,13,16.50
2015,06,27,06,14,16.50
2015,06,27,06,15,16.50
2015,06,27,06,16,16.50
2015,06,27,06,17,16.60
2015,06,27,06,18,16.60
2015,06,27,06,19,16.60
2015,06,27,06,20,16.60
2015,06,27,06,21,16.60
2015,06,27,06,22,16.60
2015,06,27,06,23,16.60
2015,06,27,06,24,16.60
2015,06,27,06,25,16.60
2015,06,27,06,26,16.60
2015,06,27,06,27,16.60
2015,06,27,06,28,16.60
2015,06,27,06,29,16.60
2015,06,27,06,30,16.60
2015,06,27,06,31,16.60
2015,06,27,06,32,16.60
2015,06,27,06,33,16.60
2015,06,27,06,34,16.70
2015,06,27,06,35,16.70
2015,06,27,06,36,16.70
2015,06,27,06,37,16.70
2015,06,27,06,38,16.70
2015,06,27,06,39,16.70
2015,06,27,06,40,16.70
2015,06,27,06,41,16.70
2015,06,27,06,42,16.70
2015,06,27,06,43,16.70
2015,06,27,06,44,16.70
2015,06,27,06,45,16.70
2015,06,27,06,46,16.70
2015,06,27,06,47,16.70
2015,06,27,06,48,16.80
2015,06,27,06,49,16.80
2015,06,27,06,50,16.80
2015,06,27,06,51,16.80
2015,06,27,06,52,16.80
2015,06,27,06,53,16.80
2015,06,27,06,54,16.80
2015,06,27,06,55,16.80
2015,06,27,06,56,16.80
2015,06,27,06,57,16.90
2015,06,27,06,58,16.90
2015,06,27,06,59,16.90
2015,06,27,07,00,16.90
2015,06,27,07,01,16.90
2015,06,27,07,02,17.00
2015,06,27,07,03,17.00
2015,06,27,07,04,17.00
2015,06,27,07,05,17.10
2015,06,27,07,06,17.10
2015,06,27,07,07,17.10
2015,06,27,07,08,17.10
2015,06,27,07,09,17.10
2015,06,27,07,10,17.20
2015,06,27,07,11,17.20
2015,06,27,07,12,17.20
2015,06,27,07,13,17.20
2015,06,27,07,14,17.30
2015,06,27,07,15,17.30
2015,06,27,07,16,17.30
2015,06,27,07,17,17.40
2015,06,27,07,18,17.40
2015,06,27,07,19,17.50
2015,06,27,07,20,17.60
2015,06,27,07,21,17.70
2015,06,27,07,22,17.80
2015,06,27,07,23,17.80
2015,06,27,07,24,17.90
2015,06,27,07,25,18.00
2015,06,27,07,26,18.10
2015,06,27,07,27,18.20
2015,06,27,07,28,18.30
2015,06,27,07,29,18.30
2015,06,27,07,30,18.40
2015,06,27,07,31,18.50
2015,06,27,07,32,18.60
2015,06,27,07,33,18.70
2015,06,27,07,34,18.80
2015,06,27,07,35,18.80
2015,06,27,07,36,18.90
2015,06,27,07,37,19.00
2015,06,27,07,38,19.10
2015,06,27,07,39,19.10
2015,06,27,07,40,19.20
2015,06,27,07,41,19.30
2015,06,27,07,42,19.30
2015,06,27,07,43,19.40
2015,06,27,07,44,19.40
2015,06,27,07,45,19.50
2015,06,27,07,46,19.50
2015,06,27,07,47,19.60
2015,06,27,07,48,19.70
2015,06,27,07,49,19.70
2015,06,27,07,50,19.80
2015,06,27,07,51,19.80
2015,06,27,07,52,19.90
2015,06,27,07,53,20.00
2015,06,27,07,54,20.00
2015,06,27,07,55,20.10
2015,06,27,07,56,20.20
2015,06,27,07,57,20.30
2015,06,27,07,58,20.40
2015,06,27,07,59,20.50
2015,06,27,08,00,20.50
2015,06,27,08,01,20.60
2015,06,27,08,02,20.70
2015,06,27,08,03,20.80
2015,06,27,08,04,20.80
2015,06,27,08,05,20.90
2015,06,27,08,06,20.90
2015,06,27,08,07,21.00
2015,06,27,08,08,21.10
2015,06,27,08,09,21.20
2015,06,27,08,10,21.30
2015,06,27,08,11,21.40
2015,06,27,08,12,21.40
2015,06,27,08,13,21.50
2015,06,27,08,14,21.60
2015,06,27,08,15,21.70
2015,06,27,08,16,21.70
2015,06,27,08,17,21.80
2015,06,27,08,18,21.80
2015,06,27,08,19,21.90
2015,06,27,08,20,22.00
2015,06,27,08,21,22.00
2015,06,27,08,22,22.00
2015,06,27,08,23,22.10
2015,06,27,08,24,22.10
2015,06,27,08,25,22.10
2015,06,27,08,26,22.20
2015,06,27,08,27,22.20
2015,06,27,08,28,22.20
2015,06,27,08,29,22.30
2015,06,27,08,30,22.40
2015,06,27,08,31,22.40
2015,06,27,08,32,22.50
2015,06,27,08,33,22.60
2015,06,27,08,34,22.60
2015,06,27,08,35,22.70
2015,06,27,08,36,22.80
2015,06,27,08,37,22.80
2015,06,27,08,38,22.80
2015,06,27,08,39,22.90
2015,06,27,08,40,22.90
2015,06,27,08,41,23.00
2015,06,27,08,42,23.00
2015,06,27,08,43,23.10
2015,06,27,08,44,23.10
2015,06,27,08,45,23.20
2015,06,27,08,46,23.20
2015,06,27,08,47,23.30
2015,06,27,08,48,23.30
2015,06,27,08,49,23.40
2015,06,27,08,50,23.50
2015,06,27,08,51,23.50
2015,06,27,08,52,23.60
2015,06,27,08,53,23.60
2015,06,27,08,54,23.70
2015,06,27,08,55,23.70
2015,06,27,08,56,23.70
2015,06,27,08,57,23.80
2015,06,27,08,58,23.90
2015,06,27,08,59,24.00
2015,06,27,09,00,24.00
2015,06,27,09,01,24.00
2015,06,27,09,02,24.00
2015,06,27,09,03,24.00
2015,06,27,09,04,24.00
2015,06,27,09,05,24.00
2015,06,27,09,06,24.00
2015,06,27,09,07,24.10
2015,06,27,09,08,24.20
2015,06,27,09,09,24.30
2015,06,27,09,10,24.40
2015,06,27,09,11,24.40
2015,06,27,09,12,24.50
2015,06,27,09,13,24.50
2015,06,27,09,14,24.50
2015,06,27,09,15,24.50
2015,06,27,09,16,24.50
2015,06,27,09,17,24.50
2015,06,27,09,18,24.50
2015,06,27,09,19,24.50
2015,06,27,09,20,24.50
2015,06,27,09,21,24.50
2015,06,27,09,22,24.50
2015,06,27,09,23,24.60
2015,06,27,09,24,24.60
2015,06,27,09,25,24.60
2015,06,27,09,26,24.70
2015,06,27,09,27,24.70
2015,06,27,09,28,24.70
2015,06,27,09,29,24.70
2015,06,27,09,30,24.80
2015,06,27,09,31,24.80
2015,06,27,09,32,24.80
2015,06,27,09,33,24.80
2015,06,27,09,34,24.80
2015,06,27,09,35,24.80
2015,06,27,09,36,24.80
2015,06,27,09,37,24.80
2015,06,27,09,38,24.90
2015,06,27,09,39,24.90
2015,06,27,09,40,25.00
2015,06,27,09,41,25.00
2015,06,27,09,42,25.10
2015,06,27,09,43,25.10
2015,06,27,09,44,25.00
2015,06,27,09,45,25.00
2015,06,27,09,46,25.00
2015,06,27,09,47,25.00
2015,06,27,09,48,25.10
2015,06,27,09,49,25.10
2015,06,27,09,50,25.10
2015,06,27,09,51,25.20
2015,06,27,09,52,25.20
2015,06,27,09,53,25.30
2015,06,27,09,54,25.40
2015,06,27,09,55,25.50
2015,06,27,09,56,25.60
2015,06,27,09,57,25.70
2015,06,27,09,58,25.70
2015,06,27,09,59,25.70
2015,06,27,10,00,25.80
2015,06,27,10,01,25.90
2015,06,27,10,02,25.90
2015,06,27,10,03,26.00
2015,06,27,10,04,26.10
2015,06,27,10,05,26.10
2015,06,27,10,06,26.20
2015,06,27,10,07,26.20
2015,06,27,10,08,26.20
2015,06,27,10,09,26.30
2015,06,27,10,10,26.40
2015,06,27,10,11,26.40
2015,06,27,10,12,26.50
2015,06,27,10,13,26.50
2015,06,27,10,14,26.60
2015,06,27,10,15,26.60
2015,06,27,10,16,26.60
2015,06,27,10,17,26.70
2015,06,27,10,18,26.60
2015,06,27,10,19,26.60
2015,06,27,10,20,26.60
2015,06,27,10,21,26.60
2015,06,27,10,22,26.60
2015,06,27,10,23,26.60
2015,06,27,10,24,26.70
2015,06,27,10,25,26.70
2015,06,27,10,26,26.70
2015,06,27,10,27,26.80
2015,06,27,10,28,26.80
2015,06,27,10,29,26.80
2015,06,27,10,30,26.90
2015,06,27,10,31,26.90
2015,06,27,10,32,27.00
2015,06,27,10,33,27.10
2015,06,27,10,34,27.10
2015,06,27,10,35,27.10
2015,06,27,10,36,27.20
2015,06,27,10,37,27.30
2015,06,27,10,38,27.40
2015,06,27,10,39,27.40
2015,06,27,10,40,27.50
2015,06,27,10,41,27.50
2015,06,27,10,42,27.50
2015,06,27,10,43,27.60
2015,06,27,10,44,27.70
2015,06,27,10,45,27.70
2015,06,27,10,46,27.70
2015,06,27,10,47,27.80
2015,06,27,10,48,27.80
2015,06,27,10,49,27.90
2015,06,27,10,50,28.00
2015,06,27,10,51,28.10
2015,06,27,10,52,28.10
2015,06,27,10,53,28.10
2015,06,27,10,54,28.10
2015,06,27,10,55,28.10
2015,06,27,10,56,28.10
2015,06,27,10,57,28.10
2015,06,27,10,58,28.00
2015,06,27,10,59,28.00
2015,06,27,11,00,28.00
2015,06,27,11,01,27.90
2015,06,27,11,02,27.90
2015,06,27,11,03,27.90
2015,06,27,11,04,28.00
2015,06,27,11,05,28.00
2015,06,27,11,06,28.00
2015,06,27,11,07,28.00
2015,06,27,11,08,28.10
2015,06,27,11,09,28.20
2015,06,27,11,10,28.30
2015,06,27,11,11,28.40
2015,06,27,11,12,28.50
2015,06,27,11,13,28.60
2015,06,27,11,14,28.60
2015,06,27,11,15,28.70
2015,06,27,11,16,28.70
2015,06,27,11,17,28.70
2015,06,27,11,18,28.70
2015,06,27,11,19,28.80
2015,06,27,11,20,28.80
2015,06,27,11,21,28.80
2015,06,27,11,22,28.80
2015,06,27,11,23,28.70
2015,06,27,11,24,28.70
2015,06,27,11,25,28.70
2015,06,27,11,26,28.80
2015,06,27,11,27,28.80
2015,06,27,11,28,28.80
2015,06,27,11,29,28.80
2015,06,27,11,30,28.80
2015,06,27,11,31,28.70
2015,06,27,11,32,28.60
2015,06,27,11,33,28.50
2015,06,27,11,34,28.40
2015,06,27,11,35,28.30
2015,06,27,11,36,28.20
2015,06,27,11,37,28.20
2015,06,27,11,38,28.10
2015,06,27,11,39,28.10
2015,06,27,11,40,28.10
2015,06,27,11,41,28.10
2015,06,27,11,42,28.10
2015,06,27,11,43,28.10
2015,06,27,11,44,28.10
2015,06,27,11,45,28.10
2015,06,27,11,46,28.10
2015,06,27,11,47,28.10
2015,06,27,11,48,28.10
2015,06,27,11,49,28.10
2015,06,27,11,50,28.10
2015,06,27,11,51,28.10
2015,06,27,11,52,28.10
2015,06,27,11,53,28.10
2015,06,27,11,54,28.10
2015,06,27,11,55,28.10
2015,06,27,11,56,28.10
2015,06,27,11,57,28.20
2015,06,27,11,58,28.20
2015,06,27,11,59,28.20
2015,06,27,12,00,28.30
2015,06,27,12,01,28.30
2015,06,27,12,02,28.40
2015,06,27,12,03,28.50
2015,06,27,12,04,28.50
2015,06,27,12,05,28.50
2015,06,27,12,06,28.60
2015,06,27,12,07,28.60
2015,06,27,12,08,28.60
2015,06,27,12,09,28.60
2015,06,27,12,10,28.60
2015,06,27,12,11,28.60
2015,06,27,12,12,28.60
2015,06,27,12,13,28.60
2015,06,27,12,14,28.60
2015,06,27,12,15,28.50
2015,06,27,12,16,28.40
2015,06,27,12,17,28.30
2015,06,27,12,18,28.20
2015,06,27,12,19,28.10
2015,06,27,12,20,28.10
2015,06,27,12,21,28.00
2015,06,27,12,22,27.90
2015,06,27,12,23,27.90
2015,06,27,12,24,27.90
2015,06,27,12,25,27.90
2015,06,27,12,26,27.90
2015,06,27,12,27,27.90
2015,06,27,12,28,28.00
2015,06,27,12,29,28.00
2015,06,27,12,30,28.10
2015,06,27,12,31,28.20
2015,06,27,12,32,28.20
2015,06,27,12,33,28.30
2015,06,27,12,34,28.30
2015,06,27,12,35,28.20
2015,06,27,12,36,28.20
2015,06,27,12,37,28.10
2015,06,27,12,38,28.00
2015,06,27,12,39,27.80
2015,06,27,12,40,27.80
2015,06,27,12,41,27.80
2015,06,27,12,42,27.80
2015,06,27,12,43,27.80
2015,06,27,12,44,27.90
2015,06,27,12,45,27.90
2015,06,27,12,46,28.00
2015,06,27,12,47,28.10
2015,06,27,12,48,28.20
2015,06,27,12,49,28.30
2015,06,27,12,50,28.30
2015,06,27,12,51,28.30
2015,06,27,12,52,28.30
2015,06,27,12,53,28.30
2015,06,27,12,54,28.30
2015,06,27,12,55,28.30
2015,06,27,12,56,28.20
2015,06,27,12,57,28.20
2015,06,27,12,58,28.20
2015,06,27,12,59,28.30
2015,06,27,13,00,28.40
2015,06,27,13,01,28.60
2015,06,27,13,02,28.80
2015,06,27,13,03,28.90
2015,06,27,13,04,29.10
2015,06,27,13,05,29.10
2015,06,27,13,06,29.00
2015,06,27,13,07,28.90
2015,06,27,13,08,28.80
2015,06,27,13,09,28.70
2015,06,27,13,10,28.60
2015,06,27,13,11,28.60
2015,06,27,13,12,28.60
2015,06,27,13,13,28.50
2015,06,27,13,14,28.50
2015,06,27,13,15,28.40
2015,06,27,13,16,28.40
2015,06,27,13,17,28.40
2015,06,27,13,18,28.40
2015,06,27,13,19,28.40
2015,06,27,13,20,28.30
2015,06,27,13,21,28.30
2015,06,27,13,22,28.30
2015,06,27,13,23,28.30
2015,06,27,13,24,28.30
2015,06,27,13,25,28.20
2015,06,27,13,26,28.20
2015,06,27,13,27,28.20
2015,06,27,13,28,28.20
2015,06,27,13,29,28.20
2015,06,27,13,30,28.20
2015,06,27,13,31,28.30
2015,06,27,13,32,28.30
2015,06,27,13,33,28.30
2015,06,27,13,34,28.20
2015,06,27,13,35,28.20
2015,06,27,13,36,28.20
2015,06,27,13,37,28.10
2015,06,27,13,38,28.10
2015,06,27,13,39,28.10
2015,06,27,13,40,28.20
2015,06,27,13,41,28.20
2015,06,27,13,42,28.30
2015,06,27,13,43,28.30
2015,06,27,13,44,28.40
2015,06,27,13,45,28.40
2015,06,27,13,46,28.40
2015,06,27,13,47,28.50
2015,06,27,13,48,28.60
2015,06,27,13,49,28.70
2015,06,27,13,50,28.80
2015,06,27,13,51,28.80
2015,06,27,13,52,28.90
2015,06,27,13,53,28.90
2015,06,27,13,54,29.00
2015,06,27,13,55,29.00
2015,06,27,13,56,29.00
2015,06,27,13,57,29.00
2015,06,27,13,58,29.00
2015,06,27,13,59,29.00
2015,06,27,14,00,29.00
2015,06,27,14,01,29.00
2015,06,27,14,02,29.10
2015,06,27,14,03,29.20
2015,06,27,14,04,29.30
2015,06,27,14,05,29.30
2015,06,27,14,06,29.40
2015,06,27,14,07,29.40
2015,06,27,14,08,29.50
2015,06,27,14,09,29.60
2015,06,27,14,10,29.70
2015,06,27,14,11,29.70
2015,06,27,14,12,29.60
2015,06,27,14,13,29.60
2015,06,27,14,14,29.70
2015,06,27,14,15,29.70
2015,06,27,14,16,29.80
2015,06,27,14,17,29.80
2015,06,27,14,18,29.80
2015,06,27,14,19,29.80
2015,06,27,14,20,29.90
2015,06,27,14,21,29.90
2015,06,27,14,22,30.00
2015,06,27,14,23,30.00
2015,06,27,14,24,30.00
2015,06,27,14,25,30.00
2015,06,27,14,26,30.00
2015,06,27,14,27,29.90
2015,06,27,14,28,30.00
2015,06,27,14,29,30.10
2015,06,27,14,30,30.10
2015,06,27,14,31,30.10
2015,06,27,14,32,30.10
2015,06,27,14,33,30.10
2015,06,27,14,34,30.20
2015,06,27,14,35,30.20
2015,06,27,14,36,30.30
2015,06,27,14,37,30.40
2015,06,27,14,38,30.40
2015,06,27,14,39,30.50
2015,06,27,14,40,30.60
2015,06,27,14,41,30.60
2015,06,27,14,42,30.70
2015,06,27,14,43,30.70
2015,06,27,14,44,30.80
2015,06,27,14,45,30.90
2015,06,27,14,46,31.00
2015,06,27,14,47,31.20
2015,06,27,14,48,31.30
2015,06,27,14,49,31.30
2015,06,27,14,50,31.30
2015,06,27,14,51,31.20
2015,06,27,14,52,31.20
2015,06,27,14,53,31.10
2015,06,27,14,54,31.10
2015,06,27,14,55,31.00
2015,06,27,14,56,30.90
2015,06,27,14,57,30.80
2015,06,27,14,58,30.80
2015,06,27,14,59,30.70
2015,06,27,15,00,30.60
2015,06,27,15,01,30.60
2015,06,27,15,02,30.60
2015,06,27,15,03,30.60
2015,06,27,15,04,30.60
2015,06,27,15,05,30.70
2015,06,27,15,06,30.70
2015,06,27,15,07,30.70
2015,06,27,15,08,30.70
2015,06,27,15,09,30.80
2015,06,27,15,10,30.80
2015,06,27,15,11,30.80
2015,06,27,15,12,30.80
2015,06,27,15,13,30.90
2015,06,27,15,14,30.90
2015,06,27,15,15,30.90
2015,06,27,15,16,30.90
2015,06,27,15,17,31.00
2015,06,27,15,18,31.00
2015,06,27,15,19,31.10
2015,06,27,15,20,31.20
2015,06,27,15,21,31.30
2015,06,27,15,22,31.30
2015,06,27,15,23,31.30
2015,06,27,15,24,31.30
2015,06,27,15,25,31.40
2015,06,27,15,26,31.40
2015,06,27,15,27,31.40
2015,06,27,15,28,31.50
2015,06,27,15,29,31.60
2015,06,27,15,30,31.60
2015,06,27,15,31,31.60
2015,06,27,15,32,31.70
2015,06,27,15,33,31.80
2015,06,27,15,34,31.90
2015,06,27,15,35,31.90
2015,06,27,15,36,32.00
2015,06,27,15,37,32.00
2015,06,27,15,38,32.00
2015,06,27,15,39,32.10
2015,06,27,15,40,32.10
2015,06,27,15,41,32.10
2015,06,27,15,42,32.10
2015,06,27,15,43,32.10
2015,06,27,15,44,32.10
2015,06,27,15,45,32.20
2015,06,27,15,46,32.20
2015,06,27,15,47,32.30
2015,06,27,15,48,32.30
2015,06,27,15,49,32.30
2015,06,27,15,50,32.40
2015,06,27,15,51,32.40
2015,06,27,15,52,32.30
2015,06,27,15,53,32.30
2015,06,27,15,54,32.30
2015,06,27,15,55,32.30
2015,06,27,15,56,32.30
2015,06,27,15,57,32.30
2015,06,27,15,58,32.30
2015,06,27,15,59,32.40
2015,06,27,16,00,32.40
2015,06,27,16,01,32.40
2015,06,27,16,02,32.50
2015,06,27,16,03,32.40
2015,06,27,16,04,32.40
2015,06,27,16,05,32.40
2015,06,27,16,06,32.50
2015,06,27,16,07,32.40
2015,06,27,16,08,32.50
2015,06,27,16,09,32.50
2015,06,27,16,10,32.60
2015,06,27,16,11,32.60
2015,06,27,16,12,32.60
2015,06,27,16,13,32.60
2015,06,27,16,14,32.60
2015,06,27,16,15,32.70
2015,06,27,16,16,32.70
2015,06,27,16,17,32.70
2015,06,27,16,18,32.70
2015,06,27,16,19,32.70
2015,06,27,16,20,32.70
2015,06,27,16,21,32.70
2015,06,27,16,22,32.70
2015,06,27,16,23,32.80
2015,06,27,16,24,32.80
2015,06,27,16,25,32.80
2015,06,27,16,26,32.80
2015,06,27,16,27,32.80
2015,06,27,16,28,32.80
2015,06,27,16,29,32.80
2015,06,27,16,30,32.80
2015,06,27,16,31,32.80
2015,06,27,16,32,32.80
2015,06,27,16,33,32.80
2015,06,27,16,34,32.80
2015,06,27,16,35,32.80
2015,06,27,16,36,32.70
2015,06,27,16,37,32.70
2015,06,27,16,38,32.70
2015,06,27,16,39,32.70
2015,06,27,16,40,32.70
2015,06,27,16,41,32.70
2015,06,27,16,42,32.80
2015,06,27,16,43,32.80
2015,06,27,16,44,32.80
2015,06,27,16,45,32.80
2015,06,27,16,46,32.80
2015,06,27,16,47,32.70
2015,06,27,16,48,32.70
2015,06,27,16,49,32.70
2015,06,27,16,50,32.70
2015,06,27,16,51,32.70
2015,06,27,16,52,32.70
2015,06,27,16,53,32.80
2015,06,27,16,54,32.80
2015,06,27,16,55,32.80
2015,06,27,16,56,32.80
2015,06,27,16,57,32.80
2015,06,27,16,58,32.80
2015,06,27,16,59,32.80
2015,06,27,17,00,32.80
2015,06,27,17,01,32.80
2015,06,27,17,02,32.80
2015,06,27,17,03,32.80
2015,06,27,17,04,32.70
2015,06,27,17,05,32.70
2015,06,27,17,06,32.70
2015,06,27,17,07,32.70
2015,06,27,17,08,32.80
2015,06,27,17,09,32.80
2015,06,27,17,10,32.80
2015,06,27,17,11,32.80
2015,06,27,17,12,32.90
2015,06,27,17,13,32.90
2015,06,27,17,14,33.00
2015,06,27,17,15,33.00
2015,06,27,17,16,33.10
2015,06,27,17,17,33.20
2015,06,27,17,18,33.20
2015,06,27,17,19,33.20